Location: Unspecified
(0.0000°N, 0.0000°E)
Time: 05:04:09
(UTC+00:00)

A-11 Canister half - Pass Details

Date: 16 April 2026
Orbit: 1523 x 1685 km, 47.3° (Epoch: 13 May)

Event Time Altitude Azimuth Distance (km) Brightness Sun altitude
Rises 19:43:43 0° 194° (SSW) 4,725 11.6 -25.5°
Reaches altitude 10° 19:47:46 10° 179° (S) 3,765 10.9 -26.5°
Enters shadow 19:50:58 18° 161° (SSE) 3,214 10.4 -27.3°
Maximum altitude 19:54:40 22° 132° (SE) 2,972 - -28.2°
Drops below altitude 10° 20:01:40 10° 85° (E) 3,854 - -29.9°
Sets 20:05:50 0° 71° (ENE) 4,866 - -31.0°
